Time,TemperatureF,DewpointF,PressureIn,WindDirection,WindDirectionDegrees,WindSpeedMPH,WindSpeedGustMPH,Humidity,HourlyPrecipIn,Conditions,Clouds,dailyrainin,SoftwareType,DateUTC
2013-08-04 00:03:00,63.2,57.3,30.13,North,355,0.0,6.0,81,0.00,,,0.00,Wunderground v.1.15,2013-08-04 07:03:00,
2013-08-04 00:09:00,63.1,57.2,30.13,NNE,29,2.0,6.0,81,0.00,,,0.00,Wunderground v.1.15,2013-08-04 07:09:00,
2013-08-04 00:14:00,63.0,57.1,30.12,North,355,5.0,5.0,81,0.00,,,0.00,Wunderground v.1.15,2013-08-04 07:14:00,
2013-08-04 00:20:00,62.9,56.6,30.12,NE,35,5.0,5.0,80,0.00,,,0.00,Wunderground v.1.15,2013-08-04 07:20:00,
2013-08-04 00:26:00,62.7,56.4,30.12,NNW,334,5.0,5.0,80,0.00,,,0.00,Wunderground v.1.15,2013-08-04 07:26:00,
2013-08-04 00:32:00,62.7,56.4,30.12,NNE,24,5.0,5.0,80,0.00,,,0.00,Wunderground v.1.15,2013-08-04 07:32:00,
2013-08-04 00:37:00,62.6,56.7,30.12,NW,325,3.0,7.0,81,0.00,,,0.00,Wunderground v.1.15,2013-08-04 07:37:00,
2013-08-04 00:43:00,62.6,56.7,30.12,NNW,336,5.0,7.0,81,0.00,,,0.00,Wunderground v.1.15,2013-08-04 07:43:00,
2013-08-04 00:48:00,62.5,56.6,30.12,North,355,6.0,7.0,81,0.00,,,0.00,Wunderground v.1.15,2013-08-04 07:48:00,
2013-08-04 00:54:00,62.4,56.8,30.11,NNW,344,3.0,5.0,82,0.00,,,0.00,Wunderground v.1.15,2013-08-04 07:54:00,
2013-08-04 00:59:00,62.3,56.7,30.11,NW,323,2.0,5.0,82,0.00,,,0.00,Wunderground v.1.15,2013-08-04 07:59:00,
2013-08-04 01:05:00,62.2,56.6,30.11,NW,304,4.0,5.0,82,0.00,,,0.00,Wunderground v.1.15,2013-08-04 08:05:00,
2013-08-04 01:11:00,62.0,56.8,30.11,North,350,7.0,7.0,83,0.00,,,0.00,Wunderground v.1.15,2013-08-04 08:11:00,
2013-08-04 01:16:00,61.8,56.6,30.11,North,355,7.0,7.0,83,0.00,,,0.00,Wunderground v.1.15,2013-08-04 08:16:00,
2013-08-04 01:22:00,61.7,56.5,30.11,North,11,2.0,7.0,83,0.00,,,0.00,Wunderground v.1.15,2013-08-04 08:22:00,
2013-08-04 01:27:00,61.6,56.4,30.11,NNE,26,6.0,7.0,83,0.00,,,0.00,Wunderground v.1.15,2013-08-04 08:27:00,
2013-08-04 01:32:00,61.5,56.6,30.11,NNW,340,4.0,6.0,84,0.00,,,0.00,Wunderground v.1.15,2013-08-04 08:32:00,
2013-08-04 01:34:00,61.4,56.5,30.11,NNW,347,2.0,6.0,84,0.00,,,0.00,Wunderground v.1.15,2013-08-04 08:34:00,
2013-08-04 01:39:00,61.4,56.8,30.11,NE,42,2.0,6.0,85,0.00,,,0.00,Wunderground v.1.15,2013-08-04 08:39:00,
2013-08-04 01:45:00,61.4,56.8,30.11,NW,321,8.0,8.0,85,0.00,,,0.00,Wunderground v.1.15,2013-08-04 08:45:00,
2013-08-04 01:50:00,61.3,56.4,30.11,NNE,12,1.0,4.0,84,0.00,,,0.00,Wunderground v.1.15,2013-08-04 08:50:00,
2013-08-04 01:55:00,61.2,56.7,30.11,NW,325,4.0,6.0,85,0.00,,,0.00,Wunderground v.1.15,2013-08-04 08:55:00,
2013-08-04 02:01:00,61.1,56.6,30.11,NNW,336,2.0,3.0,85,0.00,,,0.00,Wunderground v.1.15,2013-08-04 09:01:00,
2013-08-04 02:06:00,61.0,56.5,30.11,NW,320,4.0,6.0,85,0.00,,,0.00,Wunderground v.1.15,2013-08-04 09:06:00,
2013-08-04 02:11:00,60.9,56.4,30.11,NNW,348,3.0,4.0,85,0.00,,,0.00,Wunderground v.1.15,2013-08-04 09:11:00,
2013-08-04 02:16:00,60.7,56.2,30.11,NW,315,0.0,5.0,85,0.00,,,0.00,Wunderground v.1.15,2013-08-04 09:16:00,
2013-08-04 02:21:00,60.6,56.1,30.11,NW,324,3.0,3.0,85,0.00,,,0.00,Wunderground v.1.15,2013-08-04 09:21:00,
2013-08-04 02:26:00,60.4,55.9,30.11,NW,315,3.0,5.0,85,0.00,,,0.00,Wunderground v.1.15,2013-08-04 09:26:00,
2013-08-04 02:31:00,60.3,55.8,30.11,NW,313,0.0,4.0,85,0.00,,,0.00,Wunderground v.1.15,2013-08-04 09:31:00,
2013-08-04 02:37:00,60.2,56.0,30.11,North,5,0.0,4.0,86,0.00,,,0.00,Wunderground v.1.15,2013-08-04 09:37:00,
2013-08-04 02:42:00,60.2,56.0,30.11,NE,37,0.0,6.0,86,0.00,,,0.00,Wunderground v.1.15,2013-08-04 09:42:00,
2013-08-04 02:47:00,60.1,55.9,30.11,North,350,0.0,6.0,86,0.00,,,0.00,Wunderground v.1.15,2013-08-04 09:47:00,
2013-08-04 02:52:00,60.0,55.8,30.11,NE,43,1.0,3.0,86,0.00,,,0.00,Wunderground v.1.15,2013-08-04 09:52:00,
2013-08-04 02:57:00,60.0,55.8,30.11,NE,49,0.0,3.0,86,0.00,,,0.00,Wunderground v.1.15,2013-08-04 09:57:00,
2013-08-04 03:02:00,59.9,55.7,30.11,NE,38,0.0,4.0,86,0.00,,,0.00,Wunderground v.1.15,2013-08-04 10:02:00,
2013-08-04 03:07:00,59.9,55.7,30.11,NNE,26,2.0,4.0,86,0.00,,,0.00,Wunderground v.1.15,2013-08-04 10:07:00,
2013-08-04 03:12:00,59.9,55.7,30.11,NE,37,0.0,1.0,86,0.00,,,0.00,Wunderground v.1.15,2013-08-04 10:12:00,
2013-08-04 03:17:00,59.9,55.7,30.11,NNE,18,2.0,3.0,86,0.00,,,0.00,Wunderground v.1.15,2013-08-04 10:17:00,
2013-08-04 03:22:00,59.9,55.7,30.11,NNE,21,2.0,3.0,86,0.00,,,0.00,Wunderground v.1.15,2013-08-04 10:22:00,
2013-08-04 03:27:00,59.9,55.7,30.11,NNE,32,0.0,3.0,86,0.00,,,0.00,Wunderground v.1.15,2013-08-04 10:27:00,
2013-08-04 03:32:00,59.9,55.7,30.11,NNE,33,0.0,1.0,86,0.00,,,0.00,Wunderground v.1.15,2013-08-04 10:32:00,
2013-08-04 03:37:00,59.8,55.6,30.11,NNE,33,0.0,1.0,86,0.00,,,0.00,Wunderground v.1.15,2013-08-04 10:37:00,
2013-08-04 03:42:00,59.7,55.5,30.11,NNE,13,3.0,4.0,86,0.00,,,0.00,Wunderground v.1.15,2013-08-04 10:42:00,
2013-08-04 03:47:00,59.6,55.4,30.11,North,355,1.0,5.0,86,0.00,,,0.00,Wunderground v.1.15,2013-08-04 10:47:00,
2013-08-04 03:52:00,59.6,55.4,30.11,NNE,13,1.0,6.0,86,0.00,,,0.00,Wunderground v.1.15,2013-08-04 10:52:00,
2013-08-04 03:57:00,59.5,55.3,30.11,NNE,18,5.0,6.0,86,0.00,,,0.00,Wunderground v.1.15,2013-08-04 10:57:00,
2013-08-04 04:02:00,59.5,55.3,30.11,NNW,344,1.0,4.0,86,0.00,,,0.00,Wunderground v.1.15,2013-08-04 11:02:00,
2013-08-04 04:07:00,59.5,55.6,30.11,NNW,335,0.0,4.0,87,0.00,,,0.00,Wunderground v.1.15,2013-08-04 11:07:00,
2013-08-04 04:12:00,59.4,55.5,30.11,NW,320,0.0,3.0,87,0.00,,,0.00,Wunderground v.1.15,2013-08-04 11:12:00,
2013-08-04 04:17:00,59.3,55.4,30.11,NNW,342,0.0,4.0,87,0.00,,,0.00,Wunderground v.1.15,2013-08-04 11:17:00,
2013-08-04 04:22:00,59.2,55.3,30.11,NNW,342,0.0,1.0,87,0.00,,,0.00,Wunderground v.1.15,2013-08-04 11:22:00,
2013-08-04 04:27:00,59.1,55.2,30.11,NW,321,0.0,3.0,87,0.00,,,0.00,Wunderground v.1.15,2013-08-04 11:27:00,
2013-08-04 04:32:00,59.0,55.1,30.11,NNW,332,0.0,0.0,87,0.00,,,0.00,Wunderground v.1.15,2013-08-04 11:32:00,
2013-08-04 04:37:00,59.0,55.1,30.11,NNW,331,0.0,1.0,87,0.00,,,0.00,Wunderground v.1.15,2013-08-04 11:37:00,
2013-08-04 04:42:00,59.0,55.1,30.11,NNW,331,0.0,0.0,87,0.00,,,0.00,Wunderground v.1.15,2013-08-04 11:42:00,
2013-08-04 04:47:00,59.0,55.4,30.11,NNW,332,0.0,0.0,88,0.00,,,0.00,Wunderground v.1.15,2013-08-04 11:47:00,
2013-08-04 04:52:00,58.9,55.0,30.11,NNW,332,0.0,0.0,87,0.00,,,0.00,Wunderground v.1.15,2013-08-04 11:52:00,
2013-08-04 04:57:00,58.6,54.7,30.11,NW,323,0.0,0.0,87,0.00,,,0.00,Wunderground v.1.15,2013-08-04 11:57:00,
2013-08-04 05:02:00,58.4,54.5,30.11,NW,323,0.0,0.0,87,0.00,,,0.00,Wunderground v.1.15,2013-08-04 12:02:00,
2013-08-04 05:07:00,58.4,54.9,30.11,NNW,327,1.0,4.0,88,0.00,,,0.00,Wunderground v.1.15,2013-08-04 12:07:00,
2013-08-04 05:12:00,58.4,54.9,30.11,NW,326,0.0,0.0,88,0.00,,,0.00,Wunderground v.1.15,2013-08-04 12:12:00,
2013-08-04 05:17:00,58.4,55.2,30.11,NNW,338,0.0,1.0,89,0.00,,,0.00,Wunderground v.1.15,2013-08-04 12:17:00,
2013-08-04 05:23:00,58.4,55.2,30.11,NNW,337,0.0,0.0,89,0.00,,,0.00,Wunderground v.1.15,2013-08-04 12:23:00,
2013-08-04 05:28:00,58.4,55.2,30.11,NNW,331,0.0,0.0,89,0.00,,,0.00,Wunderground v.1.15,2013-08-04 12:28:00,
2013-08-04 05:33:00,58.3,55.1,30.11,NNW,331,0.0,0.0,89,0.00,,,0.00,Wunderground v.1.15,2013-08-04 12:33:00,
2013-08-04 05:38:00,58.3,55.1,30.11,North,5,0.0,0.0,89,0.00,,,0.00,Wunderground v.1.15,2013-08-04 12:38:00,
2013-08-04 05:43:00,58.2,55.0,30.11,NNE,22,0.0,0.0,89,0.00,,,0.00,Wunderground v.1.15,2013-08-04 12:43:00,
2013-08-04 05:48:00,58.2,55.0,30.11,NE,45,0.0,0.0,89,0.00,,,0.00,Wunderground v.1.15,2013-08-04 12:48:00,
2013-08-04 05:53:00,58.1,54.9,30.12,NE,46,0.0,0.0,89,0.00,,,0.00,Wunderground v.1.15,2013-08-04 12:53:00,
2013-08-04 05:58:00,58.1,54.9,30.11,NE,46,0.0,0.0,89,0.00,,,0.00,Wunderground v.1.15,2013-08-04 12:58:00,
2013-08-04 06:03:00,58.1,54.9,30.12,NE,49,0.0,0.0,89,0.00,,,0.00,Wunderground v.1.15,2013-08-04 13:03:00,
2013-08-04 06:08:00,58.1,54.9,30.12,NE,45,0.0,0.0,89,0.00,,,0.00,Wunderground v.1.15,2013-08-04 13:08:00,
2013-08-04 06:12:00,58.1,54.9,30.12,NE,46,0.0,0.0,89,0.00,,,0.00,Wunderground v.1.15,2013-08-04 13:12:00,
2013-08-04 06:18:00,58.2,55.0,30.12,NE,47,0.0,0.0,89,0.00,,,0.00,Wunderground v.1.15,2013-08-04 13:18:00,
2013-08-04 06:22:00,58.2,55.0,30.12,NE,47,0.0,0.0,89,0.00,,,0.00,Wunderground v.1.15,2013-08-04 13:22:00,
2013-08-04 06:28:00,58.2,55.0,30.12,NE,49,0.0,0.0,89,0.00,,,0.00,Wunderground v.1.15,2013-08-04 13:28:00,
2013-08-04 06:33:00,58.2,55.0,30.12,NE,52,0.0,0.0,89,0.00,,,0.00,Wunderground v.1.15,2013-08-04 13:33:00,
2013-08-04 06:38:00,58.3,55.4,30.12,NE,46,0.0,0.0,90,0.00,,,0.00,Wunderground v.1.15,2013-08-04 13:38:00,
2013-08-04 06:43:00,58.3,55.4,30.12,NNW,338,0.0,0.0,90,0.00,,,0.00,Wunderground v.1.15,2013-08-04 13:43:00,
2013-08-04 06:48:00,58.4,55.5,30.12,NNW,327,0.0,2.0,90,0.00,,,0.00,Wunderground v.1.15,2013-08-04 13:48:00,
2013-08-04 06:53:00,58.5,55.6,30.12,NNW,327,0.0,0.0,90,0.00,,,0.00,Wunderground v.1.15,2013-08-04 13:53:00,
2013-08-04 06:58:00,58.7,55.8,30.12,NW,326,0.0,3.0,90,0.00,,,0.00,Wunderground v.1.15,2013-08-04 13:58:00,
2013-08-04 07:03:00,58.9,56.0,30.12,NNW,335,0.0,0.0,90,0.00,,,0.00,Wunderground v.1.15,2013-08-04 14:03:00,
2013-08-04 07:08:00,59.0,56.1,30.12,NW,318,0.0,0.0,90,0.00,,,0.00,Wunderground v.1.15,2013-08-04 14:08:00,
2013-08-04 07:13:00,59.0,56.1,30.13,NW,315,0.0,0.0,90,0.00,,,0.00,Wunderground v.1.15,2013-08-04 14:13:00,
2013-08-04 07:18:00,59.0,56.1,30.13,NW,309,0.0,3.0,90,0.00,,,0.00,Wunderground v.1.15,2013-08-04 14:18:00,
2013-08-04 07:23:00,59.1,56.2,30.13,NW,310,0.0,3.0,90,0.00,,,0.00,Wunderground v.1.15,2013-08-04 14:23:00,
2013-08-04 07:28:00,59.3,56.1,30.12,NW,306,1.0,3.0,89,0.00,,,0.00,Wunderground v.1.15,2013-08-04 14:28:00,
2013-08-04 07:33:00,59.4,56.2,30.12,NW,317,0.0,3.0,89,0.00,,,0.00,Wunderground v.1.15,2013-08-04 14:33:00,
2013-08-04 07:38:00,59.6,56.4,30.13,NW,319,1.0,3.0,89,0.00,,,0.00,Wunderground v.1.15,2013-08-04 14:38:00,
2013-08-04 07:43:00,59.8,56.6,30.13,NW,306,0.0,3.0,89,0.00,,,0.00,Wunderground v.1.15,2013-08-04 14:43:00,
2013-08-04 07:48:00,60.0,56.4,30.13,NW,313,0.0,3.0,88,0.00,,,0.00,Wunderground v.1.15,2013-08-04 14:48:00,
2013-08-04 07:53:00,60.3,56.4,30.13,NNW,343,0.0,3.0,87,0.00,,,0.00,Wunderground v.1.15,2013-08-04 14:53:00,
2013-08-04 07:58:00,60.6,56.7,30.12,NW,315,2.0,4.0,87,0.00,,,0.00,Wunderground v.1.15,2013-08-04 14:58:00,
2013-08-04 08:03:00,60.9,56.7,30.13,NW,324,2.0,2.0,86,0.00,,,0.00,Wunderground v.1.15,2013-08-04 15:03:00,
2013-08-04 08:09:00,61.2,56.7,30.12,NNE,15,0.0,4.0,85,0.00,,,0.00,Wunderground v.1.15,2013-08-04 15:09:00,
2013-08-04 08:13:00,61.5,56.9,30.12,NW,325,0.0,3.0,85,0.00,,,0.00,Wunderground v.1.15,2013-08-04 15:13:00,
2013-08-04 08:19:00,61.7,56.8,30.12,North,360,0.0,5.0,84,0.00,,,0.00,Wunderground v.1.15,2013-08-04 15:19:00,
2013-08-04 08:24:00,62.0,56.8,30.12,NW,311,2.0,5.0,83,0.00,,,0.00,Wunderground v.1.15,2013-08-04 15:24:00,
2013-08-04 08:29:00,62.3,57.1,30.12,WNW,302,1.0,5.0,83,0.00,,,0.00,Wunderground v.1.15,2013-08-04 15:29:00,
2013-08-04 08:34:00,62.5,56.9,30.12,NW,308,0.0,4.0,82,0.00,,,0.00,Wunderground v.1.15,2013-08-04 15:34:00,
2013-08-04 08:39:00,62.7,57.1,30.12,WNW,302,0.0,4.0,82,0.00,,,0.00,Wunderground v.1.15,2013-08-04 15:39:00,
2013-08-04 08:44:00,63.0,57.4,30.12,NW,316,3.0,3.0,82,0.00,,,0.00,Wunderground v.1.15,2013-08-04 15:44:00,
2013-08-04 08:49:00,63.3,57.4,30.12,NW,318,0.0,4.0,81,0.00,,,0.00,Wunderground v.1.15,2013-08-04 15:49:00,
2013-08-04 08:54:00,63.6,57.7,30.12,NW,309,1.0,3.0,81,0.00,,,0.00,Wunderground v.1.15,2013-08-04 15:54:00,
2013-08-04 08:59:00,64.0,57.7,30.12,NW,312,0.0,4.0,80,0.00,,,0.00,Wunderground v.1.15,2013-08-04 15:59:00,
2013-08-04 09:04:00,64.4,58.1,30.12,NW,311,3.0,5.0,80,0.00,,,0.00,Wunderground v.1.15,2013-08-04 16:04:00,
2013-08-04 09:09:00,64.7,58.0,30.11,NW,321,2.0,5.0,79,0.00,,,0.00,Wunderground v.1.15,2013-08-04 16:09:00,
2013-08-04 09:14:00,65.0,58.0,30.11,NNW,338,5.0,6.0,78,0.00,,,0.00,Wunderground v.1.15,2013-08-04 16:14:00,
2013-08-04 09:19:00,65.4,58.4,30.11,NW,324,3.0,6.0,78,0.00,,,0.00,Wunderground v.1.15,2013-08-04 16:19:00,
2013-08-04 09:24:00,65.8,58.4,30.12,NW,314,0.0,5.0,77,0.00,,,0.00,Wunderground v.1.15,2013-08-04 16:24:00,
2013-08-04 09:29:00,66.1,58.7,30.12,NW,324,0.0,5.0,77,0.00,,,0.00,Wunderground v.1.15,2013-08-04 16:29:00,
2013-08-04 09:34:00,66.5,59.1,30.12,NNW,335,4.0,5.0,77,0.00,,,0.00,Wunderground v.1.15,2013-08-04 16:34:00,
2013-08-04 09:39:00,67.0,59.2,30.11,NNW,331,1.0,5.0,76,0.00,,,0.00,Wunderground v.1.15,2013-08-04 16:39:00,
2013-08-04 09:44:00,67.4,59.2,30.11,NNW,336,3.0,5.0,75,0.00,,,0.00,Wunderground v.1.15,2013-08-04 16:44:00,
2013-08-04 09:49:00,67.6,59.0,30.11,NNW,346,1.0,5.0,74,0.00,,,0.00,Wunderground v.1.15,2013-08-04 16:49:00,
2013-08-04 09:54:00,67.9,59.3,30.11,North,11,0.0,5.0,74,0.00,,,0.00,Wunderground v.1.15,2013-08-04 16:54:00,
2013-08-04 09:59:00,68.2,59.6,30.11,North,360,0.0,5.0,74,0.00,,,0.00,Wunderground v.1.15,2013-08-04 16:59:00,
2013-08-04 10:04:00,68.5,59.5,30.11,NNW,339,0.0,5.0,73,0.00,,,0.00,Wunderground v.1.15,2013-08-04 17:04:00,
2013-08-04 10:09:00,68.9,59.9,30.11,North,9,2.0,5.0,73,0.00,,,0.00,Wunderground v.1.15,2013-08-04 17:09:00,
2013-08-04 10:15:00,69.2,59.8,30.11,NNW,341,3.0,4.0,72,0.00,,,0.00,Wunderground v.1.15,2013-08-04 17:15:00,
2013-08-04 10:20:00,69.5,59.7,30.11,NNW,346,3.0,3.0,71,0.00,,,0.00,Wunderground v.1.15,2013-08-04 17:20:00,
2013-08-04 10:24:00,69.6,59.8,30.11,North,351,1.0,5.0,71,0.00,,,0.00,Wunderground v.1.15,2013-08-04 17:24:00,
2013-08-04 10:30:00,69.8,60.0,30.11,NW,313,0.0,2.0,71,0.00,,,0.00,Wunderground v.1.15,2013-08-04 17:30:00,
2013-08-04 10:35:00,70.1,59.9,30.11,NW,316,4.0,5.0,70,0.00,,,0.00,Wunderground v.1.15,2013-08-04 17:35:00,
2013-08-04 10:40:00,70.5,60.2,30.10,NW,314,2.0,2.0,70,0.00,,,0.00,Wunderground v.1.15,2013-08-04 17:40:00,
2013-08-04 10:45:00,70.9,59.8,30.10,NW,313,0.0,2.0,68,0.00,,,0.00,Wunderground v.1.15,2013-08-04 17:45:00,
2013-08-04 10:50:00,71.3,60.2,30.10,South,174,0.0,0.0,68,0.00,,,0.00,Wunderground v.1.15,2013-08-04 17:50:00,
2013-08-04 10:55:00,71.9,60.8,30.10,WNW,285,0.0,5.0,68,0.00,,,0.00,Wunderground v.1.15,2013-08-04 17:55:00,
2013-08-04 11:00:00,72.2,60.6,30.10,NW,315,5.0,6.0,67,0.00,,,0.00,Wunderground v.1.15,2013-08-04 18:00:00,
2013-08-04 11:04:00,72.4,60.8,30.10,NW,305,4.0,7.0,67,0.00,,,0.00,Wunderground v.1.15,2013-08-04 18:04:00,
2013-08-04 11:09:00,72.4,60.8,30.10,NNW,343,4.0,4.0,67,0.00,,,0.00,Wunderground v.1.15,2013-08-04 18:09:00,
2013-08-04 11:15:00,72.6,61.0,30.10,WNW,282,2.0,7.0,67,0.00,,,0.00,Wunderground v.1.15,2013-08-04 18:15:00,
2013-08-04 11:20:00,72.6,61.0,30.10,NNW,328,2.0,4.0,67,0.00,,,0.00,Wunderground v.1.15,2013-08-04 18:20:00,
2013-08-04 11:25:00,72.8,61.2,30.10,WNW,295,1.0,5.0,67,0.00,,,0.00,Wunderground v.1.15,2013-08-04 18:25:00,
2013-08-04 11:30:00,73.2,61.6,30.10,NNW,339,5.0,5.0,67,0.00,,,0.00,Wunderground v.1.15,2013-08-04 18:30:00,
2013-08-04 11:35:00,73.4,60.9,30.10,North,355,1.0,6.0,65,0.00,,,0.00,Wunderground v.1.15,2013-08-04 18:35:00,
2013-08-04 11:40:00,73.6,61.5,30.10,North,9,5.0,5.0,66,0.00,,,0.00,Wunderground v.1.15,2013-08-04 18:40:00,
2013-08-04 11:45:00,73.9,61.4,30.10,NNW,346,4.0,6.0,65,0.00,,,0.00,Wunderground v.1.15,2013-08-04 18:45:00,
2013-08-04 11:50:00,74.2,61.2,30.09,NW,309,2.0,3.0,64,0.00,,,0.00,Wunderground v.1.15,2013-08-04 18:50:00,
2013-08-04 11:55:00,74.4,61.0,30.09,NNW,328,2.0,6.0,63,0.00,,,0.00,Wunderground v.1.15,2013-08-04 18:55:00,
2013-08-04 12:00:00,74.7,61.7,30.09,NNW,341,5.0,6.0,64,0.00,,,0.00,Wunderground v.1.15,2013-08-04 19:00:00,
2013-08-04 12:05:00,75.0,62.4,30.09,NW,321,2.0,6.0,65,0.00,,,0.00,Wunderground v.1.15,2013-08-04 19:05:00,
2013-08-04 12:10:00,75.3,62.3,30.09,North,5,4.0,6.0,64,0.00,,,0.00,Wunderground v.1.15,2013-08-04 19:10:00,
2013-08-04 12:15:00,75.3,61.8,30.09,North,355,7.0,7.0,63,0.00,,,0.00,Wunderground v.1.15,2013-08-04 19:15:00,
2013-08-04 12:20:00,75.4,62.4,30.09,NNW,340,5.0,6.0,64,0.00,,,0.00,Wunderground v.1.15,2013-08-04 19:20:00,
2013-08-04 12:25:00,75.4,62.4,30.09,NNE,19,6.0,7.0,64,0.00,,,0.00,Wunderground v.1.15,2013-08-04 19:25:00,
2013-08-04 12:30:00,75.5,62.5,30.09,NNE,17,5.0,5.0,64,0.00,,,0.00,Wunderground v.1.15,2013-08-04 19:30:00,
2013-08-04 12:35:00,75.5,62.0,30.09,NNW,331,5.0,10.0,63,0.00,,,0.00,Wunderground v.1.15,2013-08-04 19:35:00,
2013-08-04 12:40:00,75.3,61.4,30.08,NE,39,3.0,7.0,62,0.00,,,0.00,Wunderground v.1.15,2013-08-04 19:40:00,
2013-08-04 12:45:00,75.2,61.7,30.08,WNW,300,5.0,10.0,63,0.00,,,0.00,Wunderground v.1.15,2013-08-04 19:45:00,
2013-08-04 12:50:00,75.4,61.9,30.08,NNE,30,4.0,10.0,63,0.00,,,0.00,Wunderground v.1.15,2013-08-04 19:50:00,
2013-08-04 12:55:00,75.5,62.0,30.08,NNW,339,3.0,10.0,63,0.00,,,0.00,Wunderground v.1.15,2013-08-04 19:55:00,
2013-08-04 13:00:00,75.6,61.7,30.08,North,355,5.0,9.0,62,0.00,,,0.00,Wunderground v.1.15,2013-08-04 20:00:00,
2013-08-04 13:05:00,75.8,62.3,30.08,NNE,16,4.0,9.0,63,0.00,,,0.00,Wunderground v.1.15,2013-08-04 20:05:00,
2013-08-04 13:10:00,76.0,62.0,30.08,NNW,348,3.0,7.0,62,0.00,,,0.00,Wunderground v.1.15,2013-08-04 20:10:00,
2013-08-04 13:16:00,76.2,62.7,30.08,North,351,7.0,7.0,63,0.00,,,0.00,Wunderground v.1.15,2013-08-04 20:16:00,
2013-08-04 13:21:00,76.3,62.3,30.08,North,5,5.0,9.0,62,0.00,,,0.00,Wunderground v.1.15,2013-08-04 20:21:00,
2013-08-04 13:26:00,76.4,62.0,30.08,NW,304,4.0,9.0,61,0.00,,,0.00,Wunderground v.1.15,2013-08-04 20:26:00,
2013-08-04 13:30:00,76.4,62.0,30.08,NW,321,4.0,6.0,61,0.00,,,0.00,Wunderground v.1.15,2013-08-04 20:30:00,
2013-08-04 13:35:00,76.4,62.0,30.08,NNW,338,5.0,8.0,61,0.00,,,0.00,Wunderground v.1.15,2013-08-04 20:35:00,
2013-08-04 13:41:00,76.5,62.0,30.07,NNW,331,7.0,7.0,61,0.00,,,0.00,Wunderground v.1.15,2013-08-04 20:41:00,
2013-08-04 13:46:00,76.7,63.2,30.07,North,9,4.0,9.0,63,0.00,,,0.00,Wunderground v.1.15,2013-08-04 20:46:00,
2013-08-04 13:51:00,77.0,63.0,30.07,NW,319,4.0,9.0,62,0.00,,,0.00,Wunderground v.1.15,2013-08-04 20:51:00,
2013-08-04 13:56:00,77.0,62.5,30.07,NNE,24,7.0,11.0,61,0.00,,,0.00,Wunderground v.1.15,2013-08-04 20:56:00,
2013-08-04 14:01:00,76.9,62.9,30.07,NNE,16,6.0,10.0,62,0.00,,,0.00,Wunderground v.1.15,2013-08-04 21:01:00,
2013-08-04 14:06:00,76.8,62.8,30.07,North,5,4.0,10.0,62,0.00,,,0.00,Wunderground v.1.15,2013-08-04 21:06:00,
2013-08-04 14:11:00,76.9,62.9,30.07,North,5,4.0,10.0,62,0.00,,,0.00,Wunderground v.1.15,2013-08-04 21:11:00,
2013-08-04 14:17:00,77.1,62.6,30.06,WNW,288,3.0,10.0,61,0.00,,,0.00,Wunderground v.1.15,2013-08-04 21:17:00,
2013-08-04 14:22:00,77.4,62.9,30.06,NNW,340,6.0,10.0,61,0.00,,,0.00,Wunderground v.1.15,2013-08-04 21:22:00,
2013-08-04 14:27:00,77.5,63.0,30.06,WNW,286,5.0,10.0,61,0.00,,,0.00,Wunderground v.1.15,2013-08-04 21:27:00,
2013-08-04 14:32:00,77.6,62.6,30.06,NW,304,3.0,9.0,60,0.00,,,0.00,Wunderground v.1.15,2013-08-04 21:32:00,
2013-08-04 14:37:00,77.7,63.2,30.06,North,5,7.0,10.0,61,0.00,,,0.00,Wunderground v.1.15,2013-08-04 21:37:00,
2013-08-04 14:42:00,77.7,63.2,30.06,NW,319,9.0,10.0,61,0.00,,,0.00,Wunderground v.1.15,2013-08-04 21:42:00,
2013-08-04 14:47:00,77.7,62.7,30.05,NNW,344,3.0,10.0,60,0.00,,,0.00,Wunderground v.1.15,2013-08-04 21:47:00,
2013-08-04 14:49:00,77.9,63.4,30.05,NW,318,7.0,10.0,61,0.00,,,0.00,Wunderground v.1.15,2013-08-04 21:49:00,
2013-08-04 14:54:00,78.2,63.2,30.05,North,360,6.0,9.0,60,0.00,,,0.00,Wunderground v.1.15,2013-08-04 21:54:00,
2013-08-04 14:59:00,78.2,62.7,30.05,North,5,4.0,10.0,59,0.00,,,0.00,Wunderground v.1.15,2013-08-04 21:59:00,
2013-08-04 15:04:00,78.4,63.4,30.04,WNW,290,5.0,9.0,60,0.00,,,0.00,Wunderground v.1.15,2013-08-04 22:04:00,
2013-08-04 15:09:00,78.4,63.4,30.04,NNW,334,8.0,9.0,60,0.00,,,0.00,Wunderground v.1.15,2013-08-04 22:09:00,
2013-08-04 15:14:00,78.3,63.3,30.04,WNW,290,5.0,9.0,60,0.00,,,0.00,Wunderground v.1.15,2013-08-04 22:14:00,
2013-08-04 15:19:00,78.3,63.3,30.04,North,5,3.0,9.0,60,0.00,,,0.00,Wunderground v.1.15,2013-08-04 22:19:00,
2013-08-04 15:24:00,78.2,63.6,30.04,NW,319,3.0,9.0,61,0.00,,,0.00,Wunderground v.1.15,2013-08-04 22:24:00,
2013-08-04 15:29:00,78.2,64.1,30.04,NNW,338,5.0,9.0,62,0.00,,,0.00,Wunderground v.1.15,2013-08-04 22:29:00,
2013-08-04 15:34:00,78.3,63.3,30.04,North,355,6.0,8.0,60,0.00,,,0.00,Wunderground v.1.15,2013-08-04 22:34:00,
2013-08-04 15:39:00,78.3,63.7,30.04,NNE,16,5.0,9.0,61,0.00,,,0.00,Wunderground v.1.15,2013-08-04 22:39:00,
2013-08-04 15:44:00,78.2,63.6,30.03,WNW,294,3.0,7.0,61,0.00,,,0.00,Wunderground v.1.15,2013-08-04 22:44:00,
2013-08-04 15:49:00,78.3,63.7,30.03,North,360,5.0,7.0,61,0.00,,,0.00,Wunderground v.1.15,2013-08-04 22:49:00,
2013-08-04 15:54:00,78.7,63.6,30.03,North,355,4.0,7.0,60,0.00,,,0.00,Wunderground v.1.15,2013-08-04 22:54:00,
2013-08-04 15:59:00,78.7,62.7,30.03,NNW,348,5.0,10.0,58,0.00,,,0.00,Wunderground v.1.15,2013-08-04 22:59:00,
2013-08-04 16:04:00,78.9,64.3,30.03,North,355,4.0,6.0,61,0.00,,,0.00,Wunderground v.1.15,2013-08-04 23:04:00,
2013-08-04 16:09:00,78.8,63.7,30.02,NNW,346,6.0,8.0,60,0.00,,,0.00,Wunderground v.1.15,2013-08-04 23:09:00,
2013-08-04 16:14:00,78.7,63.2,30.02,North,350,4.0,7.0,59,0.00,,,0.00,Wunderground v.1.15,2013-08-04 23:14:00,
2013-08-04 16:19:00,78.8,63.7,30.02,NNW,335,4.0,7.0,60,0.00,,,0.00,Wunderground v.1.15,2013-08-04 23:19:00,
2013-08-04 16:24:00,79.0,63.9,30.02,NNW,329,2.0,6.0,60,0.00,,,0.00,Wunderground v.1.15,2013-08-04 23:24:00,
2013-08-04 16:29:00,79.2,64.6,30.02,NW,304,2.0,6.0,61,0.00,,,0.00,Wunderground v.1.15,2013-08-04 23:29:00,
2013-08-04 16:34:00,79.5,64.4,30.02,North,350,6.0,7.0,60,0.00,,,0.00,Wunderground v.1.15,2013-08-04 23:34:00,
2013-08-04 16:39:00,79.5,64.4,30.02,North,355,2.0,7.0,60,0.00,,,0.00,Wunderground v.1.15,2013-08-04 23:39:00,
2013-08-04 16:44:00,79.6,64.5,30.02,North,350,2.0,5.0,60,0.00,,,0.00,Wunderground v.1.15,2013-08-04 23:44:00,
2013-08-04 16:49:00,79.5,63.9,30.02,NNE,19,6.0,10.0,59,0.00,,,0.00,Wunderground v.1.15,2013-08-04 23:49:00,
2013-08-04 16:54:00,79.1,64.0,30.01,North,360,7.0,11.0,60,0.00,,,0.00,Wunderground v.1.15,2013-08-04 23:54:00,
2013-08-04 17:00:00,78.7,63.6,30.01,North,9,3.0,7.0,60,0.00,,,0.00,Wunderground v.1.15,2013-08-05 00:00:00,
2013-08-04 17:05:00,78.4,63.8,30.01,NNE,14,5.0,10.0,61,0.00,,,0.00,Wunderground v.1.15,2013-08-05 00:05:00,
2013-08-04 17:10:00,78.4,63.4,30.01,NE,44,2.0,5.0,60,0.00,,,0.00,Wunderground v.1.15,2013-08-05 00:10:00,
2013-08-04 17:14:00,78.5,64.4,30.01,NNW,333,5.0,7.0,62,0.00,,,0.00,Wunderground v.1.15,2013-08-05 00:14:00,
2013-08-04 17:19:00,78.7,65.0,30.01,NW,314,4.0,4.0,63,0.00,,,0.00,Wunderground v.1.15,2013-08-05 00:19:00,
2013-08-04 17:25:00,78.5,63.5,30.01,NNW,333,5.0,8.0,60,0.00,,,0.00,Wunderground v.1.15,2013-08-05 00:25:00,
2013-08-04 17:30:00,78.6,63.6,30.00,NNE,12,3.0,5.0,60,0.00,,,0.00,Wunderground v.1.15,2013-08-05 00:30:00,
2013-08-04 17:34:00,78.6,63.6,30.01,North,355,4.0,10.0,60,0.00,,,0.00,Wunderground v.1.15,2013-08-05 00:34:00,
2013-08-04 17:40:00,78.6,63.6,30.00,NNE,18,6.0,6.0,60,0.00,,,0.00,Wunderground v.1.15,2013-08-05 00:40:00,
2013-08-04 17:44:00,78.7,63.2,30.00,North,360,4.0,10.0,59,0.00,,,0.00,Wunderground v.1.15,2013-08-05 00:44:00,
2013-08-04 17:49:00,78.6,63.6,30.00,NNE,17,5.0,5.0,60,0.00,,,0.00,Wunderground v.1.15,2013-08-05 00:49:00,
2013-08-04 17:55:00,78.4,63.4,30.01,NNE,17,2.0,10.0,60,0.00,,,0.00,Wunderground v.1.15,2013-08-05 00:55:00,
2013-08-04 17:59:00,78.3,63.7,30.00,NNE,20,7.0,7.0,61,0.00,,,0.00,Wunderground v.1.15,2013-08-05 00:59:00,
2013-08-04 18:05:00,78.3,63.3,30.01,North,355,4.0,7.0,60,0.00,,,0.00,Wunderground v.1.15,2013-08-05 01:05:00,
2013-08-04 18:10:00,78.3,63.7,30.00,NNW,341,5.0,6.0,61,0.00,,,0.00,Wunderground v.1.15,2013-08-05 01:10:00,
2013-08-04 18:15:00,78.2,62.7,30.00,NNE,24,8.0,8.0,59,0.00,,,0.00,Wunderground v.1.15,2013-08-05 01:15:00,
2013-08-04 18:20:00,78.2,63.2,30.00,NNW,339,5.0,5.0,60,0.00,,,0.00,Wunderground v.1.15,2013-08-05 01:20:00,
2013-08-04 18:25:00,78.1,62.1,30.00,North,355,0.0,9.0,58,0.00,,,0.00,Wunderground v.1.15,2013-08-05 01:25:00,
2013-08-04 18:30:00,78.2,62.2,30.00,North,355,4.0,5.0,58,0.00,,,0.00,Wunderground v.1.15,2013-08-05 01:30:00,
2013-08-04 18:35:00,78.3,62.8,30.00,North,355,2.0,6.0,59,0.00,,,0.00,Wunderground v.1.15,2013-08-05 01:35:00,
2013-08-04 18:40:00,78.3,62.8,30.00,NNW,340,5.0,5.0,59,0.00,,,0.00,Wunderground v.1.15,2013-08-05 01:40:00,
2013-08-04 18:45:00,78.2,62.7,30.00,North,5,4.0,9.0,59,0.00,,,0.00,Wunderground v.1.15,2013-08-05 01:45:00,
2013-08-04 18:50:00,78.1,63.1,30.00,NNW,345,4.0,4.0,60,0.00,,,0.00,Wunderground v.1.15,2013-08-05 01:50:00,
2013-08-04 18:55:00,78.1,63.1,30.00,NW,325,4.0,6.0,60,0.00,,,0.00,Wunderground v.1.15,2013-08-05 01:55:00,
2013-08-04 19:00:00,78.0,63.5,30.00,NNW,348,4.0,4.0,61,0.00,,,0.00,Wunderground v.1.15,2013-08-05 02:00:00,
2013-08-04 19:05:00,77.9,63.4,30.00,North,11,4.0,5.0,61,0.00,,,0.00,Wunderground v.1.15,2013-08-05 02:05:00,
2013-08-04 19:10:00,77.7,63.2,30.00,North,5,2.0,5.0,61,0.00,,,0.00,Wunderground v.1.15,2013-08-05 02:10:00,
2013-08-04 19:15:00,77.6,62.1,30.00,North,360,3.0,5.0,59,0.00,,,0.00,Wunderground v.1.15,2013-08-05 02:15:00,
2013-08-04 19:20:00,77.6,63.1,30.00,North,5,3.0,4.0,61,0.00,,,0.00,Wunderground v.1.15,2013-08-05 02:20:00,
2013-08-04 19:25:00,77.5,63.5,30.00,North,5,1.0,5.0,62,0.00,,,0.00,Wunderground v.1.15,2013-08-05 02:25:00,
2013-08-04 19:30:00,77.3,62.3,29.99,NNW,338,4.0,6.0,60,0.00,,,0.00,Wunderground v.1.15,2013-08-05 02:30:00,
2013-08-04 19:36:00,77.0,62.5,30.00,NW,310,4.0,9.0,61,0.00,,,0.00,Wunderground v.1.15,2013-08-05 02:36:00,
2013-08-04 19:41:00,76.7,63.2,30.00,North,360,5.0,7.0,63,0.00,,,0.00,Wunderground v.1.15,2013-08-05 02:41:00,
2013-08-04 19:45:00,76.3,63.2,30.00,North,5,3.0,7.0,64,0.00,,,0.00,Wunderground v.1.15,2013-08-05 02:45:00,
2013-08-04 19:51:00,76.1,63.0,30.00,North,355,7.0,7.0,64,0.00,,,0.00,Wunderground v.1.15,2013-08-05 02:51:00,
2013-08-04 19:56:00,75.7,62.2,30.00,WNW,294,5.0,9.0,63,0.00,,,0.00,Wunderground v.1.15,2013-08-05 02:56:00,
2013-08-04 20:01:00,75.3,61.4,30.00,NW,316,6.0,7.0,62,0.00,,,0.00,Wunderground v.1.15,2013-08-05 03:01:00,
2013-08-04 20:05:00,75.0,60.6,30.00,NW,313,4.0,7.0,61,0.00,,,0.00,Wunderground v.1.15,2013-08-05 03:05:00,
2013-08-04 20:11:00,74.6,60.7,30.00,NW,324,5.0,6.0,62,0.00,,,0.00,Wunderground v.1.15,2013-08-05 03:11:00,
2013-08-04 20:16:00,74.2,60.8,30.00,WNW,286,3.0,10.0,63,0.00,,,0.00,Wunderground v.1.15,2013-08-05 03:16:00,
2013-08-04 20:21:00,73.7,60.3,30.01,North,350,5.0,9.0,63,0.00,,,0.00,Wunderground v.1.15,2013-08-05 03:21:00,
2013-08-04 20:26:00,73.3,60.4,30.01,NNW,347,3.0,10.0,64,0.00,,,0.00,Wunderground v.1.15,2013-08-05 03:26:00,
2013-08-04 20:31:00,72.9,60.4,30.01,West,278,4.0,7.0,65,0.00,,,0.00,Wunderground v.1.15,2013-08-05 03:31:00,
2013-08-04 20:37:00,72.6,60.2,30.01,NNW,335,2.0,9.0,65,0.00,,,0.00,Wunderground v.1.15,2013-08-05 03:37:00,
2013-08-04 20:42:00,72.2,60.2,30.01,NW,320,3.0,8.0,66,0.00,,,0.00,Wunderground v.1.15,2013-08-05 03:42:00,
2013-08-04 20:47:00,71.9,60.3,30.01,NNW,331,5.0,9.0,67,0.00,,,0.00,Wunderground v.1.15,2013-08-05 03:47:00,
2013-08-04 20:52:00,71.7,60.2,30.01,NW,325,6.0,7.0,67,0.00,,,0.00,Wunderground v.1.15,2013-08-05 03:52:00,
2013-08-04 20:57:00,71.4,60.3,30.01,NW,313,4.0,7.0,68,0.00,,,0.00,Wunderground v.1.15,2013-08-05 03:57:00,
2013-08-04 21:01:00,71.3,60.2,30.02,NNW,335,4.0,6.0,68,0.00,,,0.00,Wunderground v.1.15,2013-08-05 04:01:00,
2013-08-04 21:07:00,71.1,60.4,30.02,NW,324,4.0,6.0,69,0.00,,,0.00,Wunderground v.1.15,2013-08-05 04:07:00,
2013-08-04 21:12:00,71.0,60.7,30.02,NNW,330,1.0,4.0,70,0.00,,,0.00,Wunderground v.1.15,2013-08-05 04:12:00,
2013-08-04 21:17:00,70.9,61.4,30.02,NNW,332,2.0,5.0,72,0.00,,,0.00,Wunderground v.1.15,2013-08-05 04:17:00,
2013-08-04 21:22:00,70.7,60.8,30.02,NNW,342,3.0,5.0,71,0.00,,,0.00,Wunderground v.1.15,2013-08-05 04:22:00,
2013-08-04 21:27:00,70.6,61.1,30.02,NNW,342,2.0,7.0,72,0.00,,,0.00,Wunderground v.1.15,2013-08-05 04:27:00,
2013-08-04 21:32:00,70.5,61.4,30.03,North,350,4.0,6.0,73,0.00,,,0.00,Wunderground v.1.15,2013-08-05 04:32:00,
2013-08-04 21:37:00,70.3,61.2,30.03,NNW,341,1.0,8.0,73,0.00,,,0.00,Wunderground v.1.15,2013-08-05 04:37:00,
2013-08-04 21:42:00,70.2,61.1,30.03,North,349,2.0,5.0,73,0.00,,,0.00,Wunderground v.1.15,2013-08-05 04:42:00,
2013-08-04 21:47:00,70.0,61.3,30.03,NE,38,6.0,6.0,74,0.00,,,0.00,Wunderground v.1.15,2013-08-05 04:47:00,
2013-08-04 21:52:00,69.9,61.2,30.03,NW,309,1.0,4.0,74,0.00,,,0.00,Wunderground v.1.15,2013-08-05 04:52:00,
2013-08-04 21:57:00,69.8,61.1,30.03,NW,319,2.0,4.0,74,0.00,,,0.00,Wunderground v.1.15,2013-08-05 04:57:00,
2013-08-04 22:02:00,69.6,61.3,30.04,NW,319,2.0,4.0,75,0.00,,,0.00,Wunderground v.1.15,2013-08-05 05:02:00,
2013-08-04 22:07:00,69.5,61.2,30.03,North,9,4.0,4.0,75,0.00,,,0.00,Wunderground v.1.15,2013-08-05 05:07:00,
2013-08-04 22:12:00,69.4,61.1,30.03,NW,316,2.0,6.0,75,0.00,,,0.00,Wunderground v.1.15,2013-08-05 05:12:00,
2013-08-04 22:17:00,69.3,61.0,30.04,North,360,4.0,8.0,75,0.00,,,0.00,Wunderground v.1.15,2013-08-05 05:17:00,
2013-08-04 22:22:00,69.2,60.6,30.04,NNW,343,4.0,5.0,74,0.00,,,0.00,Wunderground v.1.15,2013-08-05 05:22:00,
2013-08-04 22:27:00,69.1,60.1,30.04,NW,325,1.0,5.0,73,0.00,,,0.00,Wunderground v.1.15,2013-08-05 05:27:00,
2013-08-04 22:32:00,69.1,60.8,30.04,North,5,3.0,6.0,75,0.00,,,0.00,Wunderground v.1.15,2013-08-05 05:32:00,
2013-08-04 22:37:00,68.9,60.3,30.04,NNE,26,0.0,6.0,74,0.00,,,0.00,Wunderground v.1.15,2013-08-05 05:37:00,
2013-08-04 22:42:00,68.9,60.3,30.04,North,5,5.0,7.0,74,0.00,,,0.00,Wunderground v.1.15,2013-08-05 05:42:00,
2013-08-04 22:47:00,68.8,60.6,30.04,North,355,4.0,7.0,75,0.00,,,0.00,Wunderground v.1.15,2013-08-05 05:47:00,
2013-08-04 22:52:00,68.8,61.3,30.04,North,11,2.0,4.0,77,0.00,,,0.00,Wunderground v.1.15,2013-08-05 05:52:00,
2013-08-04 22:57:00,68.5,60.6,30.04,NNE,16,0.0,6.0,76,0.00,,,0.00,Wunderground v.1.15,2013-08-05 05:57:00,
2013-08-04 23:02:00,68.3,59.7,30.04,NNE,32,3.0,5.0,74,0.00,,,0.00,Wunderground v.1.15,2013-08-05 06:02:00,
2013-08-04 23:07:00,68.2,59.2,30.04,North,355,2.0,7.0,73,0.00,,,0.00,Wunderground v.1.15,2013-08-05 06:07:00,
2013-08-04 23:12:00,68.1,59.5,30.04,NNE,33,4.0,7.0,74,0.00,,,0.00,Wunderground v.1.15,2013-08-05 06:12:00,
2013-08-04 23:17:00,68.1,59.5,30.04,NNE,19,5.0,7.0,74,0.00,,,0.00,Wunderground v.1.15,2013-08-05 06:17:00,
2013-08-04 23:22:00,68.0,59.4,30.04,NNE,28,4.0,6.0,74,0.00,,,0.00,Wunderground v.1.15,2013-08-05 06:22:00,
2013-08-04 23:27:00,67.9,59.3,30.04,NNE,29,0.0,6.0,74,0.00,,,0.00,Wunderground v.1.15,2013-08-05 06:27:00,
2013-08-04 23:32:00,67.8,59.2,30.04,NE,46,0.0,1.0,74,0.00,,,0.00,Wunderground v.1.15,2013-08-05 06:32:00,
2013-08-04 23:37:00,67.6,58.6,30.04,NE,46,0.0,1.0,73,0.00,,,0.00,Wunderground v.1.15,2013-08-05 06:37:00,
2013-08-04 23:43:00,67.5,58.9,30.04,NE,46,0.0,0.0,74,0.00,,,0.00,Wunderground v.1.15,2013-08-05 06:43:00,
2013-08-04 23:48:00,67.3,58.7,30.04,NE,46,0.0,2.0,74,0.00,,,0.00,Wunderground v.1.15,2013-08-05 06:48:00,
2013-08-04 23:52:00,67.1,58.9,30.04,NE,47,0.0,0.0,75,0.00,,,0.00,Wunderground v.1.15,2013-08-05 06:52:00,
2013-08-04 23:58:00,66.9,58.3,30.04,NE,48,0.0,0.0,74,0.00,,,0.00,Wunderground v.1.15,2013-08-05 06:58:00,